INTELSAT 30 (IS-30)

Last updated on Fri Dec 19 2025 00:02:51 GMT+0000 (Coordinated Universal Time)

1 40271U 14062A 25352.60647494 -.00000126 00000+0 00000+0 0 9992 2 40271 0.0158 26.3613 0001645 64.6391 119.7440 1.00270325 4983
UTC large
Height (km)
Speed (km/s)
/
Latitude / Longitude
Inclination (degrees)
Orbital Period (minutes)
Azimuth
Elevation
Range (km)
Doppler Factor

Next 0 passes for location: London (51.5072 / 0.1276)

Sorry there are no passes over London.